Pensacola, FL

12:47 AM CDT on April 28, 2017 (GMT -0500)
Pensacola Regional

Weather History for KPNS - November, 2011

Change the Weather History Date:

Monday, November 7, 2011

  Actual Average Record
Temperature  
Mean Temperature 66 °F 63 °F  
Max Temperature 74 °F 73 °F 83 °F (1975)
Min Temperature 57 °F 54 °F 30 °F (1959)
Degree Days  
Heating Degree Days 0 4  
Month to date heating degree days 29 24  
Since 1 July heating degree days 88 62  
Cooling Degree Days 1 2  
Month to date cooling degree days 1 17  
Year to date cooling degree days 2852 2567  
Growing Degree Days 15 (Base 50)    
Moisture  
Dew Point 58 °F    
Average Humidity 76    
Maximum Humidity 90    
Minimum Humidity 61    
Precipitation  
Precipitation 0.00 in 0.16 in 4.09 in (1885)
Month to date precipitation T 1.15  
Year to date precipitation 39.20 57.14  
Snow  
Snow 0.00 in 0.00 in 0.00 in (2002)
Month to date snowfall 0.0 0.0  
Since 1 July snowfall 0.0 0.0  
Snow Depth 0.00 in    
Sea Level Pressure  
Sea Level Pressure 30.22 in    
Wind  
Wind Speed 6 mph (East)    
Max Wind Speed 14 mph    
Max Gust Speed 18 mph    
Visibility 10 miles    
Events      
T = Trace of Precipitation, MM = Missing Value Source: NWS Daily Summary

Daily Weather History Graph

Daily Weather History Graph

Search for Another Location

Airport or City:

Trip Planner

Search our weather history database for the weather conditions in past years. The results will help you decide how hot, cold, wet, or windy it might be!

Date:

Astronomy

Nov. 07, 2011 Rise Set
Actual Time 6:07 AM CST 4:56 PM CST
Civil Twilight 5:42 AM CST 5:21 PM CST
Nautical Twilight 5:14 AM CST 5:50 PM CST
Astronomical Twilight 4:45 AM CST 6:18 PM CST
Moon 3:00 PM CST (11/7) 3:19 AM CST (11/7)
Length of Visible Light 11h 38m
Length of Day
10h 48m
Waxing Gibbous, 92% of the Moon is Illuminated
Nov 7
Waxing Gibbous
Nov 10
Full
Nov 18
Last Quarter
Nov 25
New
Dec 2
First Quarter

Hourly Weather History & Observations

Time (CST) Temp. Dew Point Humidity Pressure Visibility Wind Dir Wind Speed Gust Speed Precip Events Conditions
12:53 AM 61.0 °F 55.9 °F 83% 30.25 in 10.0 mi East 6.9 mph - N/A   Clear
1:53 AM 60.1 °F 55.9 °F 86% 30.25 in 10.0 mi East 4.6 mph - N/A   Clear
2:53 AM 60.1 °F 55.0 °F 83% 30.24 in 10.0 mi ENE 4.6 mph - N/A   Clear
3:53 AM 59.0 °F 55.0 °F 87% 30.24 in 10.0 mi NE 5.8 mph - N/A   Clear
4:53 AM 57.0 °F 54.0 °F 89% 30.24 in 10.0 mi ENE 6.9 mph - N/A   Clear
5:53 AM 57.0 °F 54.0 °F 89% 30.25 in 10.0 mi ENE 8.1 mph - N/A   Clear
6:53 AM 57.9 °F 54.0 °F 87% 30.27 in 10.0 mi ENE 6.9 mph - N/A   Clear
7:53 AM 59.0 °F 54.0 °F 83% 30.28 in 10.0 mi ENE 6.9 mph - N/A   Scattered Clouds
8:53 AM 63.0 °F 55.0 °F 75% 30.29 in 10.0 mi East 5.8 mph - N/A   Scattered Clouds
9:53 AM 66.9 °F 55.9 °F 68% 30.28 in 10.0 mi SE 5.8 mph - N/A   Partly Cloudy
10:53 AM 71.1 °F 57.9 °F 63% 30.26 in 10.0 mi SE 8.1 mph - N/A   Clear
11:53 AM 73.0 °F 59.0 °F 61% 30.23 in 10.0 mi SE 9.2 mph - N/A   Clear
12:53 PM 73.9 °F 59.0 °F 59% 30.20 in 10.0 mi SSE 10.4 mph - N/A   Clear
1:53 PM 73.0 °F 59.0 °F 61% 30.19 in 10.0 mi SSE 10.4 mph - N/A   Clear
2:53 PM 72.0 °F 60.1 °F 66% 30.18 in 10.0 mi SSE 9.2 mph - N/A   Partly Cloudy
3:53 PM 72.0 °F 60.1 °F 66% 30.17 in 10.0 mi SSE 8.1 mph - N/A   Clear
4:53 PM 69.1 °F 60.1 °F 73% 30.16 in 10.0 mi Calm Calm - N/A   Overcast
5:53 PM 66.0 °F 60.1 °F 81% 30.18 in 10.0 mi Calm Calm - N/A   Mostly Cloudy
6:53 PM 66.0 °F 61.0 °F 84% 30.19 in 10.0 mi Calm Calm - N/A   Mostly Cloudy
7:53 PM 64.9 °F 59.0 °F 81% 30.19 in 10.0 mi ENE 3.5 mph - N/A   Mostly Cloudy
8:53 PM 62.1 °F 59.0 °F 90% 30.20 in 10.0 mi Calm Calm - N/A   Clear
9:53 PM 64.0 °F 59.0 °F 84% 30.19 in 10.0 mi East 5.8 mph - N/A   Partly Cloudy
10:53 PM 64.9 °F 59.0 °F 81% 30.17 in 10.0 mi East 6.9 mph - N/A   Clear
11:53 PM 63.0 °F 60.1 °F 90% 30.15 in 10.0 mi East 4.6 mph - N/A   Clear